Starlink 31632

operational
NORAD ID: 59326 Int'l Des: 2024-057 Owner: SPXS Country: US Constellation: starlink
LEOCIRCULAR

Über Starlink 31632

Beschreibung wird geladen...

Live-Position

3D-Globus wird geladen...

Nächste Überflüge

Höhenverlauf

Altitude vs Time

uPlot chart will show altitude changes over time

Zweizeiliger Elementsatz

1 59326U 24057G 25304.77754767 -.00002052 00000-0 -65172-4 0 9993
2 59326 42.9982 206.3507 0000687 277.8435 82.2339 15.27540165 89999
Epoch: 31. Okt. 2025 • Age: 37 hours

Aktueller Status

Höhe 488.0 km
Geschwindigkeit 7.62 km/s
Subsatellitenpunkt -21.40°S, 114.69°W
Startdatum 25. März 2024
Alter 1.6 years
Typ internet

Technische Details

Klassifizierung Payload
Masse 730.00 kg
Trockenmasse 700.00 kg
Gesamtmasse 730.00 kg
Länge 0.30 m
Durchmesser 4.10 m
Spannweite 29.00 m
Form Box + pan
Hersteller SPXS
Bus-Typ Starlink V2M
Phasenstatus In Orbit
Besitzer/Staat SPXS/US

Große Konstellationen

Loading constellations...